Regional Weather Roundup
Issued by NWS New Orleans/Baton Rouge, LA

Home | Current Version | Previous Version | Graphics & Text | Print | Product List | Glossary On
Versions: 1 2 3 4 5 6 7 8 9 10 11 12 13 14 15 16 17 18 19 20 21 22 23 24 25 26 27 28 29 30 31 32 33 34 35 36 37 38 39 40 41 42 43 44 45 46 47 48 49 50
520
ASUS44 KLIX 010405
RWRLIX
NEW ORLEANS REGIONAL WEATHER ROUNDUP
NATIONAL WEATHER SERVICE NEW ORLEANS LA
1000 PM CST SAT FEB 28 2015

NOTE: "FAIR" INDICATES FEW OR NO CLOUDS BELOW 12,000 FEET WITH NO
      SIGNIFICANT WEATHER AND/OR OBSTRUCTIONS TO VISIBILITY.
      SKY/WX - SKY CONDITION AND SIGNIFICANT WEATHER.
      TMP - AIR TEMPERATURE.     DP    - DEWPOINT TEMPERATURE.
      RH  - RELATIVE HUMIDITY.   PRES  - PRESSURE.
      HI  - HEAT INDEX.          WCI   - WIND CHILL INDEX.

*  THESE STATIONS ARE NOT NWS OR FAA STATIONS AND ARE NOT UNDER
   NWS QUALITY CONTROL.

LAZ038-040-048-061>063-065>067-069-010500-
SOUTHEAST LOUISIANA

CITY           SKY/WX    TMP DP  RH WIND       PRES   REMARKS
N.O. AUDUBON     N/A     57  55  94 MISG        N/A
N.O. INTL ARPT PTCLDY    57  51  80 E10       30.34S
N.O. LAKEFRONT PTCLDY    57  51  80 E15       30.34F
SLIDELL        CLEAR     54  51  90 NE5       30.36R
BATON ROUGE    PTCLDY    56  49  77 E8        30.32S
BOOTHVILLE     CLOUDY    57  56  96 E10       30.34S FOG
BELLE CHASSE   MOCLDY    57  51  80 E9        30.34R
BOGALUSA*        N/A     58  49  73 SE3       30.39R
GALLIANO*      CLOUDY    58  55  88 NE5       30.34R
NEW ROADS*       N/A     55  46  72 E6        30.33R
GONZALES*        N/A     57  52  84 E8        30.32F
HAMMOND*       CLEAR     52  46  82 CALM      30.38R
HOUMA*         MOCLDY    56  53  91 E12G18    30.33R
PORT FOURCHON* CLOUDY    59  55  88 E14G20    30.35F FOG

$$

MSZ070-080>082-010500-
SOUTHERN MISSISSIPPI

CITY           SKY/WX    TMP DP  RH WIND       PRES   REMARKS
MCCOMB         CLOUDY    55  46  71 SE8       30.34F
GULFPORT       CLOUDY    56  52  86 SE14      30.38R
BILOXI         CLOUDY    56  54  92 SE7       30.37S
PASCAGOULA     CLOUDY    56  51  84 E6        30.38F

$$

COASTAL OBSERVATIONS
LAKE AND NEARSHORE STATIONS

STATION/POSITION TIME  TEMP    WIND        PRES    WAVE
                       AIR SEA DIR/SP/G            HT/PER
                 (UTC) (F)     (DEG/KT/KT) (MB)    (FT/S)
PASCAGOULA       0400   57     100/ 10/ 14 1028.5
WAVELAND YACHT   0400   56 52  120/ 16/ 20 1028.0
GRAND ISLE       0400   57 57   80/ 14/ 20 1027.5
SOUTHWEST PASS   0400   57 48   60/ 14/ 15 1026.8
NEW CANAL        0400   56      80/  6/ 11 1027.6
SHELL BEACH      0400   55 53   90/ 13/ 15 1027.5

OFFSHORE STATIONS

STATION/POSITION TIME  TEMP    WIND        PRES    WAVE
                       AIR SEA DIR/SP/G            HT/PER
                 (UTC) (F)     (DEG/KT/KT) (MB)    (FT/S)
64 S DAUPHIN ISL 0349   64 70   90/ 17/ 21 1028.0    6/ 7

$$




USA.gov is the U.S. government's official web portal to all federal, state and local government web resources and services.